Location: Boone Canyon
(38.3180°N, 119.2504°W)
Time: 18:16:23
(UTC+00:00)

CZ-4B R/B - Pass Details

Date: 18 September 2020
Orbit: 498 x 645 km, 97.8° (Epoch: 19 October)

Event Time Altitude Azimuth Distance (km) Brightness Sun altitude
Rises 12:54:04 0° 9° (N) 2,862 7.7 -10.1°
Reaches altitude 10° 12:56:13 10° 6° (N) 1,976 6.9 -9.7°
Maximum altitude 13:00:30 67° 284° (WNW) 683 4.1 -8.9°
Drops below altitude 10° 13:04:53 10° 203° (SSW) 2,021 6.4 -8.0°
Sets 13:07:07 0° 200° (SSW) 2,935 7.2 -7.6°
